EHI
0 0 0 0 0 0 0 0 0 0 0 0 0 0 0 0 0 0 0 0 0 1 1 0 0 0 1 2 3 3 2 1 1 1 2 3 3 3 3 3 3 3 3 3
0 0 0 0 0 0 0 0 0 0 0 0 0 0 0 0 0 0 0 0 0 1 1 0 0 0 1 2 3 3 3 2 2 2 3 3 3 3 3 3 3 3 2 1
0 0 0 0 0 0 0 0 0 0 0 0 0 0 0 0 0 0 0 0 0 1 1 0 0 0 1 2 3 3 3 3 3 3 3 3 3 3 3 4 3 2 1 0
0 0 0 0 0 0 0 0 0 0 0 0 0 0 0 0 0 0 0 0 0 0 0 0 0 0 1 2 3 3 4 3 3 3 4 4 4 4 4 4 3 1 0 0
0 0 0 0 0 0 0 0 0 0 0 0 0 0 0 0 0 0 0 0 0 0 0 0 0 0 1 2 3 4 4 4 3 4 4 5 5 4 3 3 2 0 0 0
0 0 0 0 0 0 0 0 0 0 0 0 0 0 0 0 0 0 0 0 0 0 0 0 0 0 0 1 2 3 4 4 3 3 3 3 3 3 1 1 0 0 0 0
0 0 0 0 0 0 0 0 0 0 0 0 0 0 0 0 0 0 0 0 0 0 0 0 0 0 0 0 1 2 2 2 1 1 1 1 1 1 0 0 0 0 0 0
0 0 0 0 0 0 0 0 0 0 0 0 0 0 0 0 0 0 0 0 0 0 0 0 0 0 0 0 0 1 1 0 0 0 0 0 0 0 0 0 0 0 0 0
0 0 0 0 0 0 0 0 0 0 0 0 0 0 0 0 0 0 0 0 0 0 0 0 0 0 0 0 0 0 0 0 0 0 0 0 0 1 1 1 0 0 0 0
0 0 0 0 0 0 0 0 0 0 0 0 0 0 0 0 0 0 0 0 0 0 0 0 0 0 0 0 0 0 0 0 0 0 0 0 0 1 2 2 1 1 0 0
0 0 0 0 0 0 0 0 0 0 0 0 0 0 0 0 0 0 0 0 0 0 0 0 0 0 0 0 0 0 0 0 0 0 0 0 0 1 2 2 2 1 0 0
0 0 0 0 0 0 0 0 0 0 0 0 0 0 0 0 0 0 0 0 0 0 0 0 0 0 0 0 0 0 0 0 0 0 0 0 0 0 1 1 1 1 0 0
0 0 0 0 0 0 0 0 0 0 0 0 0 0 0 0 0 0 0 0 0 0 0 0 0 0 0 0 0 0 0 0 0 0 0 0 0 0 0 0 0 0 0 0
0 0 0 0 0 0 0 0 0 0 0 0 0 0 0 0 0 0 0 0 0 0 0 0 0 0 0 0 0 0 0 0 0 0 0 0 0 0 0 0 0 0 0 0
0 0 0 0 0 0 0 0 0 0 0 0 0 0 0 0 0 0 0 0 0 0 0 0 0 0 0 0 0 0 0 0 0 0 0 0 0 0 0 0 0 0 0 0
0 0 0 0 0 0 0 0 0 0 0 0 0 0 0 0 0 0 0 0 0 0 0 0 0 0 0 0 0 0 0 0 0 0 0 0 0 0 0 0 0 0 0 0
0 0 0 0 0 0 0 0 0 0 0 0 0 0 0 0 0 0 0 0 0 0 0 0 0 0 0 0 0 0 0 0 0 0 0 0 0 0 0 0 0 0 0 0
0 0 0 0 0 0 0 0 0 0 0 0 0 0 0 0 0 0 0 0 0 0 0 0 0 0 0 0 0 0 0 0 0 0 0 0 0 0 0 0 0 0 0 0
0 0 0 0 0 0 0 0 0 0 0 0 0 0 0 0 0 0 0 0 0 0 0 0 0 0 0 0 0 0 0 0 0 0 0 0 0 0 0 0 0 0 0 0
0 0 0 0 0 0 0 0 0 0 0 0 0 0 0 0 0 0 0 0 0 0 0 0 0 0 0 0 0 0 0 0 0 0 0 0 0 0 0 0 0 0 0 0
0 0 0 0 0 0 0 0 0 0 0 0 0 0 0 0 0 0 0 0 0 0 0 0 0 0 0 0 0 0 0 0 0 0 0 0 0 0 0 0 0 0 0 0
0 0 0 0 0 0 0 0 0 0 0 0 0 0 0 0 0 0 0 0 0 0 0 0 0 0 0 0 0 0 0 0 0 0 0 0 0 0 0 0 0 0 0 0
0 0 0 0 0 0 0 0 0 0 0 0 0 0 0 0 0 0 0 0 0 0 0 0 0 0 0 0 0 0 0 0 0 0 0 0 0 0 0 0 0 0 0 0
0 0 0 0 0 0 0 0 0 0 0 0 0 0 0 0 0 0 0 0 0 0 0 0 0 0 0 0 0 0 0 0 0 0 0 0 0 0 0 0 0 0 0 0
0 0 0 0 0 0 0 0 0 0 0 0 0 0 0 0 0 0 0 0 0 0 0 0 0 0 0 0 0 0 0 0 0 0 0 0 0 0 0 0 0 0 0 0
0 0 0 0 0 0 0 0 0 0 0 0 0 0 0 0 0 0 0 0 0 0 0 0 0 0 0 0 0 0 0 0 0 0 0 0 0 0 0 0 0 0 0 0
0 0 0 0 0 0 0 0 0 0 0 0 0 0 0 0 0 0 0 0 0 0 0 0 0 0 0 0 0 0 0 0 0 0 0 0 0 0 0 0 0 0 0 0
Wind_Speed
8 7 6 7 7 8 10 10 10 9 8 7 5 5 3 2 1 2 2 3 3 3 3 3 4 4 4 4 4 4 4 4 4 4 3 3 3 4 4 3 3 3 3 3
7 5 6 7 8 9 10 10 11 10 9 6 5 4 3 3 2 2 2 3 3 3 2 3 3 3 4 4 4 4 4 4 3 4 3 3 3 4 3 3 3 3 3 3
6 4 7 7 6 6 6 6 8 9 6 4 4 4 4 4 3 3 3 2 3 3 3 2 2 3 4 4 4 4 4 4 4 4 4 3 3 3 4 4 4 4 4 3
5 5 7 0 1 3 5 4 5 5 5 5 5 4 4 3 2 2 3 3 3 3 2 2 2 2 2 3 4 5 4 4 4 4 4 4 4 3 4 4 4 4 3 3
5 7 6 3 2 3 5 4 3 4 4 3 3 4 2 2 3 3 3 3 3 3 3 2 2 2 2 3 4 4 4 4 4 4 4 4 4 4 4 4 4 4 3 3
5 7 6 2 2 3 5 4 2 2 3 2 2 5 2 2 3 3 3 2 2 2 2 2 2 2 3 3 4 4 3 4 4 4 4 4 4 4 3 3 4 4 4 4
8 8 4 2 2 2 4 2 2 3 4 4 5 6 4 3 3 3 2 2 2 2 2 2 2 3 3 3 3 3 3 3 3 3 4 4 3 3 3 3 4 4 4 4
5 7 4 2 2 2 3 4 3 4 4 5 5 5 5 4 3 2 2 2 2 2 2 2 2 3 3 3 2 2 2 3 3 3 3 3 3 3 3 3 4 4 3 3
4 3 2 2 0 2 3 4 4 4 5 5 5 5 5 4 3 2 2 2 2 2 2 2 3 3 3 2 2 2 3 2 3 3 3 3 3 3 3 3 3 3 3 2
5 5 4 3 2 3 3 4 5 5 5 5 5 6 5 4 3 3 3 2 2 2 2 2 2 3 2 2 2 3 3 3 2 3 2 2 2 2 2 2 2 2 3 3
7 5 5 4 4 4 4 4 4 5 5 5 5 5 5 4 3 3 2 2 2 2 3 2 2 2 2 2 3 3 3 3 3 2 2 2 2 1 2 2 2 2 2 2
5 4 5 5 4 4 4 4 5 5 5 5 5 5 5 4 3 3 2 2 2 2 2 2 1 2 2 2 3 3 3 2 2 2 2 2 2 1 1 1 1 1 2 3
5 4 5 5 5 5 5 5 5 5 5 5 5 5 4 4 3 2 2 2 2 2 2 2 1 1 1 2 3 3 3 2 2 2 3 2 2 3 2 1 1 1 2 2
4 4 5 5 5 5 5 5 5 5 5 4 4 4 3 3 3 2 2 2 2 2 2 2 2 2 1 2 3 4 3 3 3 2 2 3 3 3 3 2 2 2 2 2
5 5 6 5 5 5 4 4 4 4 4 4 3 3 3 3 3 3 2 2 1 2 2 2 2 2 2 2 3 3 3 2 2 2 2 2 2 2 2 2 2 2 1 2
4 4 4 4 5 5 4 4 4 4 4 4 4 3 3 3 3 2 1 1 2 2 2 2 3 3 2 2 3 2 2 2 3 3 3 3 3 3 2 2 2 2 2 1
4 5 5 5 5 5 5 4 4 4 4 4 4 3 2 2 2 2 2 2 3 3 3 3 3 2 2 3 3 2 2 3 4 3 3 3 3 3 3 2 2 2 2 1
6 6 6 6 5 5 5 4 4 4 4 4 3 2 3 3 3 3 2 2 2 3 3 3 2 2 2 3 2 2 2 2 2 3 2 2 2 2 2 2 3 3 2 2
3 4 4 4 4 4 4 3 3 3 3 3 3 3 3 3 3 3 3 3 3 3 3 2 2 3 2 2 2 2 2 2 2 2 2 2 3 3 2 2 3 3 2 2
1 2 2 2 2 2 3 3 3 3 3 3 3 3 4 3 3 3 3 4 3 3 3 2 2 3 2 2 2 2 2 2 2 2 2 2 2 3 3 3 3 3 2 2
1 1 1 1 2 2 3 3 3 3 3 3 4 4 4 4 3 3 4 4 3 2 2 2 3 2 2 2 3 2 2 2 2 2 2 2 2 2 2 3 2 2 3 3
1 1 1 2 2 3 3 3 3 3 3 3 4 4 4 4 4 4 4 3 3 2 2 3 3 3 2 3 3 2 2 3 3 3 3 3 3 3 3 3 3 3 3 3
2 2 2 2 3 3 3 3 3 3 4 4 4 4 4 4 3 3 3 3 2 3 3 3 2 3 4 3 3 3 3 3 3 3 3 3 3 3 3 3 3 3 3 3
2 3 2 3 3 3 4 3 3 3 4 4 4 4 4 3 3 3 3 2 2 3 3 2 2 3 4 3 3 3 3 3 3 3 2 3 3 3 3 3 3 3 3 4
3 3 3 3 3 3 3 4 4 4 4 3 4 4 3 3 3 3 3 3 3 3 3 2 3 4 3 2 3 3 3 3 2 2 3 3 3 3 3 3 3 3 3 3
3 3 3 3 3 3 3 3 3 3 3 3 3 3 2 2 3 3 2 3 3 3 3 2 3 3 3 3 3 3 3 3 3 3 3 3 3 3 3 3 4 4 4 4
3 3 3 3 3 2 3 3 3 3 3 3 3 3 2 2 2 2 2 2 2 2 2 2 3 3 3 3 3 3 3 3 3 3 3 3 3 4 4 5 4 4 4 4
Wind_Direction
278 283 268 267 267 254 247 259 270 280 279 289 304 300 282 264 253 221 209 210 215 212 212 207 207 204 205 201 194 193 194 192 188 187 190 191 196 204 205 208 215 214 215 218
266 262 250 260 270 259 254 256 262 272 277 305 305 293 283 271 254 239 234 231 231 228 226 221 216 211 206 207 201 199 201 198 189 190 188 190 199 202 198 206 218 220 220 218
267 266 256 251 260 256 254 256 256 266 287 307 295 295 294 288 260 250 256 253 252 247 239 240 234 225 216 213 203 204 203 194 196 196 191 197 200 201 203 210 216 221 220 222
269 260 246 17 9 273 265 271 269 278 293 292 297 301 298 292 282 272 264 260 261 264 260 256 249 239 221 213 209 208 203 204 198 200 199 202 205 209 215 217 217 225 224 226
251 260 263 253 262 261 263 267 303 288 302 316 319 280 263 291 296 286 275 266 258 258 259 251 241 233 215 206 210 210 208 215 205 202 202 203 206 213 220 222 223 225 223 224
241 255 257 308 359 290 260 244 338 292 296 310 297 284 314 320 286 281 282 273 263 255 249 234 234 224 213 209 210 214 214 218 209 204 203 205 207 213 222 226 228 226 226 227
243 251 258 338 345 214 238 334 4 298 291 282 278 304 324 302 282 276 272 271 261 247 240 234 226 217 218 216 222 226 222 214 204 201 205 207 211 217 219 221 225 227 227 233
239 245 250 71 157 221 325 355 331 317 316 301 294 299 296 290 282 276 274 267 260 242 238 230 216 218 217 221 229 218 209 204 198 195 196 196 203 215 214 210 216 224 226 225
247 267 353 124 232 338 332 312 314 311 314 308 300 291 286 283 280 271 265 252 257 250 242 223 211 219 218 211 208 202 199 200 194 188 192 194 196 203 204 205 212 218 221 223
248 255 270 271 280 299 299 299 307 307 306 300 296 296 291 282 274 268 257 251 257 247 240 238 224 224 221 195 191 194 195 193 189 186 185 187 195 199 201 206 214 218 223 228
249 266 279 267 277 287 293 299 305 308 304 298 293 290 286 283 277 269 260 254 257 256 246 235 224 214 211 196 197 198 197 190 182 180 181 186 187 203 215 217 241 241 240 238
256 266 270 279 298 297 290 292 296 300 302 300 290 284 281 276 273 266 256 260 268 273 276 266 233 211 199 198 210 206 195 191 188 184 187 190 187 178 63 229 154 237 286 278
269 282 288 290 289 286 284 289 295 295 294 295 291 284 280 279 275 271 264 265 272 284 294 299 282 246 219 213 216 214 204 196 196 192 192 199 200 200 195 176 166 199 225 256
260 269 273 279 287 293 291 291 289 289 291 293 293 288 281 280 278 271 271 274 279 280 284 287 282 275 252 228 222 220 212 197 205 203 197 202 205 211 213 207 203 208 199 193
260 264 268 283 283 285 286 284 284 289 298 301 297 284 278 272 266 269 284 292 278 276 283 282 280 280 269 242 230 227 220 207 206 209 203 202 205 209 212 217 222 226 215 174
273 269 259 261 267 273 274 273 276 285 294 301 295 283 278 275 276 274 277 266 253 263 272 270 274 280 267 247 238 233 228 206 216 214 203 200 202 206 209 212 220 228 232 227
249 255 254 254 262 270 273 275 277 280 288 294 294 286 272 266 266 265 269 266 266 271 275 280 290 293 258 241 235 234 226 199 204 216 208 202 205 208 210 212 223 233 239 230
251 256 258 257 260 271 277 282 283 281 285 293 292 267 255 255 262 269 271 274 279 280 281 287 295 288 254 237 234 239 229 207 206 215 215 213 213 214 214 220 226 234 236 210
248 251 257 260 262 266 275 285 292 294 299 293 274 261 259 264 270 271 264 259 261 267 277 287 292 256 251 241 240 234 228 212 209 216 219 207 214 218 219 226 233 236 239 235
248 246 249 262 271 274 283 293 298 297 298 290 274 267 264 265 267 264 259 260 265 278 283 277 246 243 239 221 231 229 217 216 215 212 215 218 221 221 224 230 237 240 245 246
253 268 262 267 284 291 291 290 286 284 288 281 273 271 274 272 266 260 259 265 271 281 278 254 242 244 238 228 224 227 217 216 217 218 223 228 231 231 234 238 245 252 255 257
241 263 287 293 288 292 300 297 286 282 283 280 278 277 278 277 272 265 260 269 281 282 263 241 238 241 242 230 224 220 220 224 224 225 225 229 233 238 241 245 249 254 260 263
254 265 281 292 291 292 294 293 292 283 276 277 276 272 271 277 273 270 273 282 274 264 261 249 252 243 230 222 219 217 220 224 225 228 233 237 239 242 246 251 257 261 264 266
269 272 277 286 287 283 286 294 297 291 284 281 276 274 272 271 271 269 281 280 277 269 262 259 230 220 224 224 218 218 221 225 229 231 237 245 248 248 251 256 260 263 265 269
264 265 264 271 274 278 284 288 288 289 290 288 289 286 275 268 271 276 277 269 264 260 258 241 225 225 226 230 226 227 228 229 232 235 240 246 252 254 256 258 261 263 265 268
249 255 260 264 271 274 273 273 276 283 287 290 292 293 288 281 275 273 272 266 263 266 261 248 227 225 236 237 236 238 237 233 232 236 240 246 251 253 256 259 263 262 264 266
249 254 256 261 262 260 263 264 266 270 272 277 285 290 285 281 275 269 268 266 261 255 252 251 239 232 236 236 236 237 240 242 241 239 241 246 249 251 253 256 259 261 262 263